Wetterdaten: Mittwoch, 02.09.2015
Datum Zeit Temp. A. Feuchte A. Luftdruck Regen Wind Richtung Richtung Sonnenschein ET UV Solar Taupunkt Windchill Windben Empfang
02.09.2015 00:03 19,4 C 73 % 1014,0 hPa 0,0 l/m 11,5 km/h (2 Bft) W-SW 256 0 min 0,000 mm 0,0 UV-I 0 W/m 14,4 C 17,5 C 19,8 km/h (3 Bft) 0,00 %
02.09.2015 00:08 19,1 C 76 % 1013,7 hPa 0,0 l/m 4,7 km/h (1 Bft) W 279 0 min 0,000 mm 0,0 UV-I 0 W/m 14,8 C 19,1 C 7,9 km/h (2 Bft) 0,00 %
02.09.2015 00:13 18,8 C 81 % 1013,8 hPa 0,0 l/m 9,0 km/h (2 Bft) W 271 0 min 0,000 mm 0,0 UV-I 0 W/m 15,5 C 17,7 C 11,9 km/h (2 Bft) 0,00 %
02.09.2015 00:18 18,3 C 82 % 1013,7 hPa 0,0 l/m 13,0 km/h (3 Bft) W 259 0 min 0,000 mm 0,0 UV-I 0 W/m 15,2 C 15,8 C 19,8 km/h (3 Bft) 0,00 %
02.09.2015 00:23 18,0 C 85 % 1013,9 hPa 0,0 l/m 4,0 km/h (1 Bft) W-SW 241 0 min 0,000 mm 0,0 UV-I 0 W/m 15,4 C 18,0 C 7,9 km/h (2 Bft) 0,00 %
02.09.2015 00:28 17,8 C 88 % 1014,1 hPa 0,0 l/m 0,4 km/h (0 Bft) N-NW 339 0 min 0,000 mm 0,0 UV-I 0 W/m 15,8 C 17,8 C 4,0 km/h (1 Bft) 0,00 %
02.09.2015 00:33 17,5 C 91 % 1014,2 hPa 0,6 l/m 4,0 km/h (1 Bft) W-SW 256 0 min 0,000 mm 0,0 UV-I 0 W/m 16,0 C 17,5 C 7,9 km/h (2 Bft) 0,00 %
02.09.2015 00:38 17,1 C 93 % 1014,3 hPa 0,0 l/m 0,4 km/h (0 Bft) NO 49 0 min 0,000 mm 0,0 UV-I 0 W/m 16,0 C 17,1 C 4,0 km/h (1 Bft) 0,00 %
02.09.2015 00:43 16,9 C 93 % 1014,3 hPa 0,0 l/m 0,0 km/h (0 Bft) N 354 0 min 0,000 mm 0,0 UV-I 0 W/m 15,8 C 16,9 C 0,0 km/h (0 Bft) 0,00 %
02.09.2015 00:48 16,9 C 93 % 1014,5 hPa 0,3 l/m 0,0 km/h (0 Bft) N-NO 30 0 min 0,000 mm 0,0 UV-I 0 W/m 15,8 C 16,9 C 0,0 km/h (0 Bft) 0,00 %
02.09.2015 00:53 16,8 C 94 % 1014,6 hPa 0,0 l/m 1,4 km/h (1 Bft) SW 221 0 min 0,000 mm 0,0 UV-I 0 W/m 15,8 C 16,8 C 4,0 km/h (1 Bft) 0,00 %
02.09.2015 00:58 16,8 C 94 % 1014,5 hPa 0,0 l/m 0,0 km/h (0 Bft) O-NO 59 0 min 0,000 mm 0,0 UV-I 0 W/m 15,8 C 16,8 C 0,0 km/h (0 Bft) 0,00 %
02.09.2015 01:03 16,8 C 95 % 1014,5 hPa 0,3 l/m 0,0 km/h (0 Bft) NO 38 0 min 0,000 mm 0,0 UV-I 0 W/m 16,0 C 16,8 C 0,0 km/h (0 Bft) 0,00 %
02.09.2015 01:08 16,7 C 95 % 1014,6 hPa 0,0 l/m 0,4 km/h (0 Bft) W-SW 256 0 min 0,000 mm 0,0 UV-I 0 W/m 15,9 C 16,7 C 4,0 km/h (1 Bft) 0,00 %
02.09.2015 01:13 16,7 C 95 % 1014,8 hPa 0,3 l/m 2,2 km/h (1 Bft) S 177 0 min 0,000 mm 0,0 UV-I 0 W/m 15,9 C 16,7 C 7,9 km/h (2 Bft) 0,00 %
02.09.2015 01:18 16,7 C 95 % 1014,8 hPa 0,3 l/m 4,0 km/h (1 Bft) NW 326 0 min 0,000 mm 0,0 UV-I 0 W/m 15,9 C 16,7 C 7,9 km/h (2 Bft) 0,00 %
02.09.2015 01:23 16,6 C 95 % 1014,7 hPa 0,0 l/m 0,0 km/h (0 Bft) NO 40 0 min 0,000 mm 0,0 UV-I 0 W/m 15,8 C 16,6 C 0,0 km/h (0 Bft) 0,00 %
02.09.2015 01:28 16,6 C 95 % 1014,8 hPa 0,0 l/m 0,4 km/h (0 Bft) NW 304 0 min 0,000 mm 0,0 UV-I 0 W/m 15,8 C 16,6 C 4,0 km/h (1 Bft) 0,00 %
02.09.2015 01:33 16,5 C 96 % 1014,8 hPa 0,3 l/m 0,0 km/h (0 Bft) NO 55 0 min 0,000 mm 0,0 UV-I 0 W/m 15,9 C 16,5 C 0,0 km/h (0 Bft) 0,00 %
02.09.2015 01:38 16,5 C 96 % 1014,8 hPa 0,3 l/m 0,0 km/h (0 Bft) NO 51 0 min 0,000 mm 0,0 UV-I 0 W/m 15,9 C 16,5 C 0,0 km/h (0 Bft) 0,00 %
02.09.2015 01:43 16,5 C 96 % 1014,7 hPa 0,3 l/m 0,0 km/h (0 Bft) S-SO 160 0 min 0,000 mm 0,0 UV-I 0 W/m 15,9 C 16,5 C 0,0 km/h (0 Bft) 0,00 %
02.09.2015 01:48 16,4 C 96 % 1014,8 hPa 0,3 l/m 1,8 km/h (1 Bft) W-NW 290 0 min 0,000 mm 0,0 UV-I 0 W/m 15,8 C 16,4 C 4,0 km/h (1 Bft) 0,00 %
02.09.2015 01:53 16,4 C 96 % 1014,8 hPa 0,3 l/m 2,2 km/h (1 Bft) N 350 0 min 0,000 mm 0,0 UV-I 0 W/m 15,8 C 16,4 C 4,0 km/h (1 Bft) 0,00 %
02.09.2015 01:58 16,3 C 96 % 1014,7 hPa 0,6 l/m 0,0 km/h (0 Bft) N-NO 32 0 min 0,000 mm 0,0 UV-I 0 W/m 15,7 C 16,3 C 0,0 km/h (0 Bft) 0,00 %
02.09.2015 02:03 16,3 C 96 % 1014,6 hPa 0,6 l/m 0,0 km/h (0 Bft) NO 55 0 min 0,000 mm 0,0 UV-I 0 W/m 15,7 C 16,3 C 0,0 km/h (0 Bft) 0,00 %
02.09.2015 02:08 16,2 C 96 % 1014,4 hPa 0,3 l/m 1,4 km/h (1 Bft) N-NW 338 0 min 0,000 mm 0,0 UV-I 0 W/m 15,6 C 16,2 C 4,0 km/h (1 Bft) 0,00 %
02.09.2015 02:13 16,1 C 96 % 1014,5 hPa 0,3 l/m 0,7 km/h (0 Bft) W-SW 256 0 min 0,000 mm 0,0 UV-I 0 W/m 15,5 C 16,1 C 4,0 km/h (1 Bft) 0,00 %
02.09.2015 02:18 16,2 C 97 % 1014,5 hPa 0,0 l/m 0,0 km/h (0 Bft) W 276 0 min 0,000 mm 0,0 UV-I 0 W/m 15,7 C 16,2 C 0,0 km/h (0 Bft) 0,00 %
02.09.2015 02:23 16,1 C 97 % 1014,6 hPa 0,0 l/m 0,7 km/h (0 Bft) W-NW 299 0 min 0,000 mm 0,0 UV-I 0 W/m 15,6 C 16,1 C 4,0 km/h (1 Bft) 0,00 %
02.09.2015 02:28 16,1 C 97 % 1014,6 hPa 0,0 l/m 0,7 km/h (0 Bft) N-NW 341 0 min 0,000 mm 0,0 UV-I 0 W/m 15,6 C 16,1 C 4,0 km/h (1 Bft) 0,00 %
02.09.2015 02:33 16,1 C 97 % 1014,5 hPa 0,0 l/m 0,4 km/h (0 Bft) N 354 0 min 0,000 mm 0,0 UV-I 0 W/m 15,6 C 16,1 C 4,0 km/h (1 Bft) 0,00 %
02.09.2015 02:38 16,1 C 97 % 1014,7 hPa 0,0 l/m 0,4 km/h (0 Bft) N 349 0 min 0,000 mm 0,0 UV-I 0 W/m 15,6 C 16,1 C 4,0 km/h (1 Bft) 0,00 %
02.09.2015 02:43 16,1 C 97 % 1014,7 hPa 0,3 l/m 4,7 km/h (1 Bft) NW 311 0 min 0,000 mm 0,0 UV-I 0 W/m 15,6 C 16,1 C 7,9 km/h (2 Bft) 0,00 %
02.09.2015 02:48 16,1 C 97 % 1014,7 hPa 0,3 l/m 0,0 km/h (0 Bft) NO 44 0 min 0,000 mm 0,0 UV-I 0 W/m 15,6 C 16,1 C 0,0 km/h (0 Bft) 0,00 %
02.09.2015 02:53 16,1 C 97 % 1014,8 hPa 0,3 l/m 1,4 km/h (1 Bft) NO 36 0 min 0,000 mm 0,0 UV-I 0 W/m 15,6 C 16,1 C 4,0 km/h (1 Bft) 0,00 %
02.09.2015 02:58 16,2 C 97 % 1014,7 hPa 0,3 l/m 4,0 km/h (1 Bft) W-SW 254 0 min 0,000 mm 0,0 UV-I 0 W/m 15,7 C 16,2 C 7,9 km/h (2 Bft) 0,00 %
02.09.2015 03:03 16,1 C 97 % 1014,9 hPa 0,3 l/m 1,4 km/h (1 Bft) O-NO 57 0 min 0,000 mm 0,0 UV-I 0 W/m 15,6 C 16,1 C 4,0 km/h (1 Bft) 0,00 %
02.09.2015 03:08 16,0 C 97 % 1014,9 hPa 0,3 l/m 2,2 km/h (1 Bft) NO 41 0 min 0,000 mm 0,0 UV-I 0 W/m 15,5 C 16,0 C 4,0 km/h (1 Bft) 0,00 %
02.09.2015 03:13 16,0 C 98 % 1015,0 hPa 0,6 l/m 1,4 km/h (1 Bft) NW 318 0 min 0,000 mm 0,0 UV-I 0 W/m 15,7 C 16,0 C 4,0 km/h (1 Bft) 0,00 %
02.09.2015 03:18 15,9 C 98 % 1015,0 hPa 0,3 l/m 0,0 km/h (0 Bft) N-NO 31 0 min 0,000 mm 0,0 UV-I 0 W/m 15,6 C 15,9 C 0,0 km/h (0 Bft) 0,00 %
02.09.2015 03:23 15,7 C 98 % 1015,2 hPa 0,0 l/m 0,4 km/h (0 Bft) O-NO 59 0 min 0,000 mm 0,0 UV-I 0 W/m 15,4 C 15,7 C 4,0 km/h (1 Bft) 0,00 %
02.09.2015 03:28 15,6 C 98 % 1015,0 hPa 0,0 l/m 3,2 km/h (1 Bft) NW 305 0 min 0,000 mm 0,0 UV-I 0 W/m 15,3 C 15,6 C 4,0 km/h (1 Bft) 0,00 %
02.09.2015 03:33 15,4 C 98 % 1015,2 hPa 0,0 l/m 0,0 km/h (0 Bft) NO 45 0 min 0,000 mm 0,0 UV-I 0 W/m 15,1 C 15,4 C 0,0 km/h (0 Bft) 0,00 %
02.09.2015 03:38 15,4 C 98 % 1015,2 hPa 0,0 l/m 0,4 km/h (0 Bft) NO 38 0 min 0,000 mm 0,0 UV-I 0 W/m 15,1 C 15,4 C 4,0 km/h (1 Bft) 0,00 %
02.09.2015 03:43 15,4 C 98 % 1015,1 hPa 0,0 l/m 4,7 km/h (1 Bft) W-SW 252 0 min 0,000 mm 0,0 UV-I 0 W/m 15,1 C 15,4 C 7,9 km/h (2 Bft) 0,00 %
02.09.2015 03:48 15,3 C 98 % 1015,4 hPa 0,0 l/m 0,0 km/h (0 Bft) W-SW 256 0 min 0,000 mm 0,0 UV-I 0 W/m 15,0 C 15,3 C 0,0 km/h (0 Bft) 0,00 %
02.09.2015 03:53 15,3 C 98 % 1015,2 hPa 0,0 l/m 2,9 km/h (1 Bft) N 349 0 min 0,000 mm 0,0 UV-I 0 W/m 15,0 C 15,3 C 4,0 km/h (1 Bft) 0,00 %
02.09.2015 03:58 15,3 C 98 % 1015,1 hPa 0,0 l/m 1,4 km/h (1 Bft) W-NW 291 0 min 0,000 mm 0,0 UV-I 0 W/m 15,0 C 15,3 C 4,0 km/h (1 Bft) 0,00 %
02.09.2015 04:03 15,3 C 98 % 1015,2 hPa 0,0 l/m 0,0 km/h (0 Bft) NW 309 0 min 0,000 mm 0,0 UV-I 0 W/m 15,0 C 15,3 C 0,0 km/h (0 Bft) 0,00 %
02.09.2015 04:08 15,3 C 98 % 1015,3 hPa 0,0 l/m 4,3 km/h (1 Bft) W 273 0 min 0,000 mm 0,0 UV-I 0 W/m 15,0 C 15,3 C 7,9 km/h (2 Bft) 0,00 %
02.09.2015 04:13 15,3 C 98 % 1015,2 hPa 0,0 l/m 0,0 km/h (0 Bft) NO 51 0 min 0,000 mm 0,0 UV-I 0 W/m 15,0 C 15,3 C 0,0 km/h (0 Bft) 0,00 %
02.09.2015 04:18 15,3 C 97 % 1015,1 hPa 0,0 l/m 1,8 km/h (1 Bft) W-NW 302 0 min 0,000 mm 0,0 UV-I 0 W/m 14,8 C 15,3 C 7,9 km/h (2 Bft) 0,00 %
02.09.2015 04:23 15,3 C 97 % 1015,2 hPa 0,0 l/m 1,8 km/h (1 Bft) W-SW 256 0 min 0,000 mm 0,0 UV-I 0 W/m 14,8 C 15,3 C 4,0 km/h (1 Bft) 0,00 %
02.09.2015 04:28 15,3 C 97 % 1015,2 hPa 0,0 l/m 0,7 km/h (0 Bft) N-NW 331 0 min 0,000 mm 0,0 UV-I 0 W/m 14,8 C 15,3 C 4,0 km/h (1 Bft) 0,00 %
02.09.2015 04:33 15,2 C 97 % 1015,0 hPa 0,0 l/m 2,2 km/h (1 Bft) NW 312 0 min 0,000 mm 0,0 UV-I 0 W/m 14,7 C 15,2 C 4,0 km/h (1 Bft) 0,00 %
02.09.2015 04:38 15,2 C 97 % 1014,9 hPa 0,0 l/m 0,7 km/h (0 Bft) N-NO 25 0 min 0,000 mm 0,0 UV-I 0 W/m 14,7 C 15,2 C 4,0 km/h (1 Bft) 0,00 %
02.09.2015 04:43 15,2 C 97 % 1014,8 hPa 0,0 l/m 1,4 km/h (1 Bft) W-SW 256 0 min 0,000 mm 0,0 UV-I 0 W/m 14,7 C 15,2 C 4,0 km/h (1 Bft) 0,00 %
02.09.2015 04:48 15,2 C 96 % 1015,2 hPa 0,0 l/m 0,0 km/h (0 Bft) O 99 0 min 0,000 mm 0,0 UV-I 0 W/m 14,6 C 15,2 C 0,0 km/h (0 Bft) 0,00 %
02.09.2015 04:53 15,2 C 96 % 1015,2 hPa 0,0 l/m 0,0 km/h (0 Bft) O-NO 58 0 min 0,000 mm 0,0 UV-I 0 W/m 14,6 C 15,2 C 0,0 km/h (0 Bft) 0,00 %
02.09.2015 04:58 15,2 C 96 % 1015,2 hPa 0,0 l/m 0,4 km/h (0 Bft) N 355 0 min 0,000 mm 0,0 UV-I 0 W/m 14,6 C 15,2 C 4,0 km/h (1 Bft) 0,00 %
02.09.2015 05:03 15,1 C 96 % 1015,3 hPa 0,0 l/m 0,4 km/h (0 Bft) N-NO 29 0 min 0,000 mm 0,0 UV-I 0 W/m 14,5 C 15,1 C 4,0 km/h (1 Bft) 0,00 %
02.09.2015 05:08 15,1 C 96 % 1015,3 hPa 0,0 l/m 2,2 km/h (1 Bft) S-SW 209 0 min 0,000 mm 0,0 UV-I 0 W/m 14,5 C 15,1 C 4,0 km/h (1 Bft) 0,00 %
02.09.2015 05:13 15,0 C 95 % 1015,1 hPa 0,0 l/m 0,0 km/h (0 Bft) N-NW 332 0 min 0,000 mm 0,0 UV-I 0 W/m 14,2 C 15,0 C 0,0 km/h (0 Bft) 0,00 %
02.09.2015 05:18 15,0 C 95 % 1015,3 hPa 0,0 l/m 0,7 km/h (0 Bft) N-NW 338 0 min 0,000 mm 0,0 UV-I 0 W/m 14,2 C 15,0 C 4,0 km/h (1 Bft) 0,00 %
02.09.2015 05:23 15,0 C 95 % 1015,2 hPa 0,0 l/m 0,7 km/h (0 Bft) W-NW 283 0 min 0,000 mm 0,0 UV-I 0 W/m 14,2 C 15,0 C 4,0 km/h (1 Bft) 0,00 %
02.09.2015 05:28 14,9 C 96 % 1015,2 hPa 0,0 l/m 2,9 km/h (1 Bft) NW 308 0 min 0,000 mm 0,0 UV-I 0 W/m 14,3 C 14,9 C 4,0 km/h (1 Bft) 0,00 %
02.09.2015 05:33 14,8 C 96 % 1015,1 hPa 0,0 l/m 0,0 km/h (0 Bft) N 354 0 min 0,000 mm 0,0 UV-I 0 W/m 14,2 C 14,8 C 0,0 km/h (0 Bft) 0,00 %
02.09.2015 05:38 14,7 C 96 % 1015,2 hPa 0,0 l/m 2,2 km/h (1 Bft) W-SW 256 0 min 0,000 mm 0,0 UV-I 0 W/m 14,1 C 14,7 C 4,0 km/h (1 Bft) 0,00 %
02.09.2015 05:43 14,6 C 96 % 1015,3 hPa 0,0 l/m 0,0 km/h (0 Bft) N 352 0 min 0,000 mm 0,0 UV-I 0 W/m 14,0 C 14,6 C 0,0 km/h (0 Bft) 0,00 %
02.09.2015 05:48 14,5 C 96 % 1015,4 hPa 0,0 l/m 0,7 km/h (0 Bft) N-NW 347 0 min 0,000 mm 0,0 UV-I 0 W/m 13,9 C 14,5 C 4,0 km/h (1 Bft) 0,00 %
02.09.2015 05:53 14,5 C 96 % 1015,3 hPa 0,0 l/m 0,0 km/h (0 Bft) N-NO 20 0 min 0,000 mm 0,0 UV-I 0 W/m 13,9 C 14,5 C 0,0 km/h (0 Bft) 0,00 %
02.09.2015 05:58 14,5 C 97 % 1015,3 hPa 0,0 l/m 2,9 km/h (1 Bft) W-SW 251 0 min 0,000 mm 0,0 UV-I 0 W/m 14,0 C 14,5 C 4,0 km/h (1 Bft) 0,00 %
02.09.2015 06:03 14,5 C 97 % 1015,3 hPa 0,0 l/m 0,0 km/h (0 Bft) NO 35 0 min 0,000 mm 0,0 UV-I 0 W/m 14,0 C 14,5 C 0,0 km/h (0 Bft) 0,00 %
02.09.2015 06:08 14,5 C 96 % 1015,3 hPa 0,0 l/m 2,9 km/h (1 Bft) O-NO 65 0 min 0,000 mm 0,0 UV-I 0 W/m 13,9 C 14,5 C 4,0 km/h (1 Bft) 0,00 %
02.09.2015 06:13 14,5 C 96 % 1015,5 hPa 0,0 l/m 0,0 km/h (0 Bft) NO 34 0 min 0,000 mm 0,0 UV-I 0 W/m 13,9 C 14,5 C 0,0 km/h (0 Bft) 0,00 %
02.09.2015 06:18 14,5 C 95 % 1015,5 hPa 0,0 l/m 4,7 km/h (1 Bft) W-NW 288 0 min 0,000 mm 0,0 UV-I 0 W/m 13,7 C 14,5 C 7,9 km/h (2 Bft) 0,00 %
02.09.2015 06:23 14,5 C 95 % 1015,4 hPa 0,0 l/m 0,0 km/h (0 Bft) N-NO 28 0 min 0,000 mm 0,0 UV-I 0 W/m 13,7 C 14,5 C 0,0 km/h (0 Bft) 0,00 %
02.09.2015 06:28 14,5 C 94 % 1015,5 hPa 0,0 l/m 1,8 km/h (1 Bft) NW 304 0 min 0,000 mm 0,0 UV-I 0 W/m 13,5 C 14,5 C 4,0 km/h (1 Bft) 0,00 %
02.09.2015 06:33 14,5 C 94 % 1015,4 hPa 0,0 l/m 0,0 km/h (0 Bft) N 355 0 min 0,000 mm 0,0 UV-I 0 W/m 13,5 C 14,5 C 0,0 km/h (0 Bft) 0,00 %
02.09.2015 06:38 14,5 C 94 % 1015,6 hPa 0,0 l/m 0,0 km/h (0 Bft) NO 39 0 min 0,000 mm 0,0 UV-I 0 W/m 13,5 C 14,5 C 0,0 km/h (0 Bft) 0,00 %
02.09.2015 06:43 14,5 C 93 % 1015,6 hPa 0,0 l/m 0,4 km/h (0 Bft) NO 46 0 min 0,000 mm 0,0 UV-I 0 W/m 13,4 C 14,5 C 4,0 km/h (1 Bft) 0,00 %
02.09.2015 06:48 14,5 C 93 % 1015,9 hPa 0,0 l/m 0,4 km/h (0 Bft) N-NW 346 0 min 0,000 mm 0,0 UV-I 2 W/m 13,4 C 14,5 C 4,0 km/h (1 Bft) 0,00 %
02.09.2015 06:53 14,5 C 93 % 1015,8 hPa 0,0 l/m 0,4 km/h (0 Bft) N-NW 347 0 min 0,000 mm 0,0 UV-I 4 W/m 13,4 C 14,5 C 4,0 km/h (1 Bft) 0,00 %
02.09.2015 06:58 14,5 C 93 % 1015,9 hPa 0,0 l/m 1,4 km/h (1 Bft) NW 316 0 min 0,000 mm 0,0 UV-I 19 W/m 13,4 C 14,5 C 4,0 km/h (1 Bft) 0,00 %
02.09.2015 07:03 14,5 C 93 % 1016,0 hPa 0,0 l/m 0,4 km/h (0 Bft) N 349 0 min 0,000 mm 0,0 UV-I 26 W/m 13,4 C 14,5 C 4,0 km/h (1 Bft) 0,00 %
02.09.2015 07:08 14,5 C 93 % 1016,0 hPa 0,0 l/m 0,0 km/h (0 Bft) N-NW 327 0 min 0,000 mm 0,0 UV-I 30 W/m 13,4 C 14,5 C 0,0 km/h (0 Bft) 0,00 %
02.09.2015 07:13 14,5 C 93 % 1016,2 hPa 0,0 l/m 0,0 km/h (0 Bft) NO 56 0 min 0,000 mm 0,0 UV-I 34 W/m 13,4 C 14,5 C 0,0 km/h (0 Bft) 0,00 %
02.09.2015 07:18 14,6 C 93 % 1016,0 hPa 0,0 l/m 0,7 km/h (0 Bft) W-NW 284 0 min 0,000 mm 0,0 UV-I 36 W/m 13,5 C 14,6 C 4,0 km/h (1 Bft) 0,00 %
02.09.2015 07:23 14,7 C 93 % 1016,0 hPa 0,0 l/m 0,0 km/h (0 Bft) N 356 0 min 0,000 mm 0,0 UV-I 42 W/m 13,6 C 14,7 C 0,0 km/h (0 Bft) 0,00 %
02.09.2015 07:28 14,7 C 93 % 1016,2 hPa 0,0 l/m 0,4 km/h (0 Bft) W-NW 299 0 min 0,000 mm 0,0 UV-I 55 W/m 13,6 C 14,7 C 4,0 km/h (1 Bft) 0,00 %
02.09.2015 07:33 14,7 C 92 % 1016,1 hPa 0,0 l/m 0,0 km/h (0 Bft) N-NW 342 0 min 0,000 mm 0,0 UV-I 62 W/m 13,4 C 14,7 C 0,0 km/h (0 Bft) 0,00 %
02.09.2015 07:38 14,8 C 92 % 1016,3 hPa 0,0 l/m 0,0 km/h (0 Bft) NO 52 0 min 0,000 mm 0,0 UV-I 98 W/m 13,5 C 14,8 C 0,0 km/h (0 Bft) 0,00 %
02.09.2015 07:43 14,8 C 91 % 1016,5 hPa 0,0 l/m 0,7 km/h (0 Bft) W 278 0 min 0,000 mm 0,0 UV-I 114 W/m 13,3 C 14,8 C 4,0 km/h (1 Bft) 0,00 %
02.09.2015 07:48 15,0 C 91 % 1016,4 hPa 0,0 l/m 4,3 km/h (1 Bft) W-SW 251 0 min 0,000 mm 0,0 UV-I 119 W/m 13,5 C 15,0 C 7,9 km/h (2 Bft) 0,00 %
02.09.2015 07:53 15,1 C 90 % 1016,4 hPa 0,0 l/m 0,4 km/h (0 Bft) SW 222 0 min 0,000 mm 1,0 UV-I 94 W/m 13,5 C 15,1 C 4,0 km/h (1 Bft) 0,00 %
02.09.2015 07:58 15,1 C 89 % 1016,4 hPa 0,0 l/m 4,7 km/h (1 Bft) W 276 0 min 0,000 mm 0,0 UV-I 80 W/m 13,3 C 15,1 C 7,9 km/h (2 Bft) 0,00 %
02.09.2015 08:03 15,1 C 89 % 1016,3 hPa 0,0 l/m 0,0 km/h (0 Bft) O-NO 57 0 min 0,000 mm 0,0 UV-I 80 W/m 13,3 C 15,1 C 0,0 km/h (0 Bft) 0,00 %
02.09.2015 08:08 15,1 C 89 % 1016,3 hPa 0,0 l/m 0,0 km/h (0 Bft) NO 45 0 min 0,000 mm 0,0 UV-I 82 W/m 13,3 C 15,1 C 0,0 km/h (0 Bft) 0,00 %
02.09.2015 08:13 15,1 C 90 % 1016,4 hPa 0,0 l/m 0,0 km/h (0 Bft) N-NO 22 0 min 0,000 mm 1,0 UV-I 85 W/m 13,5 C 15,1 C 0,0 km/h (0 Bft) 0,00 %
02.09.2015 08:18 15,1 C 90 % 1016,4 hPa 0,0 l/m 0,0 km/h (0 Bft) NO 40 0 min 0,000 mm 1,0 UV-I 103 W/m 13,5 C 15,1 C 0,0 km/h (0 Bft) 0,00 %
02.09.2015 08:23 15,2 C 90 % 1016,4 hPa 0,0 l/m 0,0 km/h (0 Bft) N-NO 17 0 min 0,000 mm 1,0 UV-I 100 W/m 13,6 C 15,2 C 0,0 km/h (0 Bft) 0,00 %
02.09.2015 08:28 15,3 C 90 % 1016,5 hPa 0,0 l/m 2,2 km/h (1 Bft) NW 311 0 min 0,000 mm 1,0 UV-I 114 W/m 13,7 C 15,3 C 4,0 km/h (1 Bft) 0,00 %
02.09.2015 08:33 15,3 C 89 % 1016,4 hPa 0,0 l/m 0,0 km/h (0 Bft) N 352 0 min 0,000 mm 1,0 UV-I 120 W/m 13,5 C 15,3 C 0,0 km/h (0 Bft) 0,00 %
02.09.2015 08:38 15,4 C 89 % 1016,5 hPa 0,0 l/m 0,0 km/h (0 Bft) NO 43 0 min 0,000 mm 1,0 UV-I 112 W/m 13,6 C 15,4 C 0,0 km/h (0 Bft) 0,00 %
02.09.2015 08:43 15,5 C 89 % 1016,5 hPa 0,0 l/m 0,0 km/h (0 Bft) N 349 0 min 0,000 mm 1,0 UV-I 131 W/m 13,7 C 15,5 C 0,0 km/h (0 Bft) 0,00 %
02.09.2015 08:48 15,6 C 89 % 1016,5 hPa 0,0 l/m 0,0 km/h (0 Bft) N 349 0 min 0,000 mm 1,0 UV-I 168 W/m 13,8 C 15,6 C 0,0 km/h (0 Bft) 0,00 %
02.09.2015 08:53 15,7 C 88 % 1016,7 hPa 0,0 l/m 0,0 km/h (0 Bft) NO 51 0 min 0,000 mm 1,0 UV-I 179 W/m 13,7 C 15,7 C 0,0 km/h (0 Bft) 0,00 %
02.09.2015 08:58 15,9 C 86 % 1016,7 hPa 0,0 l/m 1,8 km/h (1 Bft) W-SW 249 0 min 0,000 mm 1,0 UV-I 194 W/m 13,6 C 15,9 C 4,0 km/h (1 Bft) 0,00 %
02.09.2015 09:03 16,0 C 84 % 1016,7 hPa 0,0 l/m 0,0 km/h (0 Bft) N-NO 29 5 min 0,000 mm 1,0 UV-I 241 W/m 13,3 C 16,0 C 0,0 km/h (0 Bft) 0,00 %
02.09.2015 09:08 16,3 C 85 % 1016,8 hPa 0,0 l/m 0,0 km/h (0 Bft) NO 38 5 min 0,000 mm 1,0 UV-I 249 W/m 13,8 C 16,3 C 0,0 km/h (0 Bft) 0,00 %
02.09.2015 09:13 16,6 C 82 % 1016,6 hPa 0,0 l/m 0,0 km/h (0 Bft) NO 49 5 min 0,000 mm 1,0 UV-I 282 W/m 13,5 C 16,6 C 0,0 km/h (0 Bft) 0,00 %
02.09.2015 09:18 16,8 C 82 % 1016,9 hPa 0,0 l/m 0,0 km/h (0 Bft) N 351 5 min 0,000 mm 1,0 UV-I 260 W/m 13,7 C 16,8 C 0,0 km/h (0 Bft) 0,00 %
02.09.2015 09:23 17,0 C 81 % 1016,7 hPa 0,0 l/m 0,0 km/h (0 Bft) NO 39 0 min 0,000 mm 1,0 UV-I 243 W/m 13,7 C 17,0 C 0,0 km/h (0 Bft) 0,00 %
02.09.2015 09:28 17,1 C 81 % 1016,8 hPa 0,0 l/m 0,0 km/h (0 Bft) N-NO 30 0 min 0,000 mm 1,0 UV-I 253 W/m 13,8 C 17,1 C 0,0 km/h (0 Bft) 0,00 %
02.09.2015 09:33 17,1 C 79 % 1016,7 hPa 0,0 l/m 0,0 km/h (0 Bft) W-SW 249 0 min 0,000 mm 1,0 UV-I 259 W/m 13,4 C 17,1 C 0,0 km/h (0 Bft) 0,00 %
02.09.2015 09:38 17,1 C 79 % 1016,5 hPa 0,0 l/m 0,0 km/h (0 Bft) W-NW 289 0 min 0,000 mm 1,0 UV-I 268 W/m 13,4 C 17,1 C 0,0 km/h (0 Bft) 0,00 %
02.09.2015 09:43 17,1 C 80 % 1016,6 hPa 0,0 l/m 0,0 km/h (0 Bft) NO 49 0 min 0,000 mm 1,0 UV-I 247 W/m 13,6 C 17,1 C 0,0 km/h (0 Bft) 0,00 %
02.09.2015 09:48 17,2 C 78 % 1016,7 hPa 0,0 l/m 0,4 km/h (0 Bft) W-SW 256 0 min 0,000 mm 1,0 UV-I 231 W/m 13,3 C 17,2 C 4,0 km/h (1 Bft) 0,00 %
02.09.2015 09:53 17,3 C 80 % 1016,7 hPa 0,0 l/m 0,4 km/h (0 Bft) SW 236 0 min 0,000 mm 1,0 UV-I 254 W/m 13,8 C 17,3 C 4,0 km/h (1 Bft) 0,00 %
02.09.2015 09:58 17,4 C 77 % 1016,7 hPa 0,0 l/m 0,0 km/h (0 Bft) NO 56 0 min 0,000 mm 1,0 UV-I 268 W/m 13,3 C 17,4 C 0,0 km/h (0 Bft) 0,00 %
02.09.2015 10:03 17,5 C 74 % 1016,7 hPa 0,0 l/m 1,8 km/h (1 Bft) N-NW 333 5 min 0,000 mm 1,0 UV-I 326 W/m 12,8 C 17,5 C 4,0 km/h (1 Bft) 0,00 %
02.09.2015 10:08 17,5 C 74 % 1016,8 hPa 0,0 l/m 0,0 km/h (0 Bft) N-NW 338 5 min 0,000 mm 1,0 UV-I 326 W/m 12,8 C 17,5 C 0,0 km/h (0 Bft) 0,00 %
02.09.2015 10:13 17,6 C 74 % 1016,6 hPa 0,0 l/m 0,0 km/h (0 Bft) NO 41 0 min 0,000 mm 1,0 UV-I 312 W/m 12,9 C 17,6 C 0,0 km/h (0 Bft) 0,00 %
02.09.2015 10:18 17,7 C 76 % 1016,5 hPa 0,0 l/m 0,0 km/h (0 Bft) NO 34 0 min 0,000 mm 1,0 UV-I 269 W/m 13,4 C 17,7 C 0,0 km/h (0 Bft) 0,00 %
02.09.2015 10:23 17,8 C 75 % 1016,6 hPa 0,0 l/m 0,4 km/h (0 Bft) NO 46 0 min 0,000 mm 1,0 UV-I 258 W/m 13,3 C 17,8 C 4,0 km/h (1 Bft) 0,00 %
02.09.2015 10:28 17,8 C 75 % 1016,6 hPa 0,0 l/m 0,0 km/h (0 Bft) N-NO 31 0 min 0,000 mm 1,0 UV-I 263 W/m 13,3 C 17,8 C 0,0 km/h (0 Bft) 0,00 %
02.09.2015 10:33 17,8 C 74 % 1016,5 hPa 0,0 l/m 0,0 km/h (0 Bft) NO 34 0 min 0,000 mm 1,0 UV-I 291 W/m 13,1 C 17,8 C 0,0 km/h (0 Bft) 0,00 %
02.09.2015 10:38 17,9 C 73 % 1016,6 hPa 0,0 l/m 0,0 km/h (0 Bft) NO 47 5 min 0,000 mm 2,0 UV-I 383 W/m 13,0 C 17,9 C 0,0 km/h (0 Bft) 0,00 %
02.09.2015 10:43 18,2 C 71 % 1016,6 hPa 0,0 l/m 0,0 km/h (0 Bft) N 352 0 min 0,000 mm 1,0 UV-I 322 W/m 12,9 C 18,2 C 0,0 km/h (0 Bft) 0,00 %
02.09.2015 10:48 18,6 C 70 % 1016,4 hPa 0,0 l/m 0,0 km/h (0 Bft) N 354 5 min 0,000 mm 2,0 UV-I 370 W/m 13,0 C 18,6 C 0,0 km/h (0 Bft) 0,00 %
02.09.2015 10:53 18,6 C 70 % 1016,4 hPa 0,0 l/m 0,0 km/h (0 Bft) NO 43 5 min 0,000 mm 2,0 UV-I 369 W/m 13,0 C 18,6 C 0,0 km/h (0 Bft) 0,00 %
02.09.2015 10:58 18,6 C 69 % 1016,4 hPa 0,0 l/m 0,0 km/h (0 Bft) N 353 0 min 0,000 mm 1,0 UV-I 270 W/m 12,8 C 18,6 C 0,0 km/h (0 Bft) 0,00 %
02.09.2015 11:03 18,8 C 70 % 1016,4 hPa 0,0 l/m 0,0 km/h (0 Bft) O-NO 67 0 min 0,000 mm 1,0 UV-I 248 W/m 13,2 C 18,8 C 0,0 km/h (0 Bft) 0,00 %
02.09.2015 11:08 18,8 C 70 % 1016,5 hPa 0,0 l/m 0,0 km/h (0 Bft) O 89 0 min 0,000 mm 2,0 UV-I 346 W/m 13,2 C 18,8 C 0,0 km/h (0 Bft) 0,00 %
02.09.2015 11:13 18,8 C 67 % 1016,5 hPa 0,0 l/m 0,0 km/h (0 Bft) O-NO 69 0 min 0,000 mm 1,0 UV-I 295 W/m 12,5 C 18,8 C 0,0 km/h (0 Bft) 0,00 %
02.09.2015 11:18 18,9 C 66 % 1016,5 hPa 0,0 l/m 0,7 km/h (0 Bft) NO 45 0 min 0,000 mm 1,0 UV-I 265 W/m 12,4 C 18,9 C 4,0 km/h (1 Bft) 0,00 %
02.09.2015 11:23 18,9 C 66 % 1016,4 hPa 0,0 l/m 0,0 km/h (0 Bft) O-NO 70 0 min 0,000 mm 1,0 UV-I 183 W/m 12,4 C 18,9 C 0,0 km/h (0 Bft) 0,00 %
02.09.2015 11:28 18,7 C 67 % 1016,5 hPa 0,0 l/m 0,0 km/h (0 Bft) NO 50 0 min 0,000 mm 1,0 UV-I 187 W/m 12,4 C 18,7 C 0,0 km/h (0 Bft) 0,00 %
02.09.2015 11:33 18,4 C 69 % 1016,3 hPa 0,0 l/m 1,4 km/h (1 Bft) O-NO 65 0 min 0,000 mm 1,0 UV-I 231 W/m 12,6 C 18,4 C 4,0 km/h (1 Bft) 0,00 %
02.09.2015 11:38 18,3 C 69 % 1016,6 hPa 0,0 l/m 0,0 km/h (0 Bft) O 83 0 min 0,000 mm 1,0 UV-I 233 W/m 12,5 C 18,3 C 0,0 km/h (0 Bft) 0,00 %
02.09.2015 11:43 18,3 C 68 % 1016,3 hPa 0,0 l/m 4,0 km/h (1 Bft) O 91 0 min 0,000 mm 1,0 UV-I 208 W/m 12,3 C 18,3 C 7,9 km/h (2 Bft) 0,00 %
02.09.2015 11:48 18,3 C 69 % 1016,2 hPa 0,0 l/m 0,4 km/h (0 Bft) S 181 0 min 0,000 mm 1,0 UV-I 261 W/m 12,5 C 18,3 C 4,0 km/h (1 Bft) 0,00 %
02.09.2015 11:53 18,2 C 70 % 1016,1 hPa 0,0 l/m 1,4 km/h (1 Bft) O 96 0 min 0,000 mm 1,0 UV-I 296 W/m 12,6 C 18,2 C 4,0 km/h (1 Bft) 0,00 %
02.09.2015 11:58 18,3 C 69 % 1016,1 hPa 0,0 l/m 0,0 km/h (0 Bft) O-NO 62 0 min 0,000 mm 2,0 UV-I 377 W/m 12,5 C 18,3 C 0,0 km/h (0 Bft) 0,00 %
02.09.2015 12:03 18,7 C 64 % 1016,2 hPa 0,0 l/m 0,4 km/h (0 Bft) O-NO 74 5 min 0,000 mm 2,0 UV-I 470 W/m 11,7 C 18,7 C 4,0 km/h (1 Bft) 0,00 %
02.09.2015 12:08 19,1 C 63 % 1016,1 hPa 0,0 l/m 0,0 km/h (0 Bft) O-NO 74 0 min 0,000 mm 2,0 UV-I 354 W/m 11,9 C 19,1 C 0,0 km/h (0 Bft) 0,00 %
02.09.2015 12:13 19,4 C 63 % 1016,0 hPa 0,0 l/m 0,4 km/h (0 Bft) O 88 0 min 0,000 mm 2,0 UV-I 330 W/m 12,2 C 19,4 C 4,0 km/h (1 Bft) 0,00 %
02.09.2015 12:18 19,5 C 65 % 1016,0 hPa 0,0 l/m 0,0 km/h (0 Bft) O-SO 104 0 min 0,000 mm 1,0 UV-I 271 W/m 12,7 C 19,5 C 0,0 km/h (0 Bft) 0,00 %
02.09.2015 12:23 19,4 C 64 % 1016,0 hPa 0,0 l/m 0,0 km/h (0 Bft) O-NO 70 0 min 0,000 mm 1,0 UV-I 280 W/m 12,4 C 19,4 C 0,0 km/h (0 Bft) 0,00 %
02.09.2015 12:28 19,3 C 64 % 1015,8 hPa 0,0 l/m 0,0 km/h (0 Bft) O 88 0 min 0,000 mm 1,0 UV-I 258 W/m 12,3 C 19,3 C 0,0 km/h (0 Bft) 0,00 %
02.09.2015 12:33 19,3 C 65 % 1015,9 hPa 0,0 l/m 0,0 km/h (0 Bft) O-NO 70 0 min 0,000 mm 1,0 UV-I 243 W/m 12,6 C 19,3 C 0,0 km/h (0 Bft) 0,00 %
02.09.2015 12:38 19,2 C 65 % 1015,8 hPa 0,0 l/m 1,4 km/h (1 Bft) S-SO 154 0 min 0,000 mm 1,0 UV-I 189 W/m 12,5 C 19,2 C 4,0 km/h (1 Bft) 0,00 %
02.09.2015 12:43 19,0 C 66 % 1015,7 hPa 0,0 l/m 0,4 km/h (0 Bft) O 91 0 min 0,000 mm 1,0 UV-I 162 W/m 12,5 C 19,0 C 4,0 km/h (1 Bft) 0,00 %
02.09.2015 12:48 18,9 C 68 % 1015,7 hPa 0,0 l/m 0,4 km/h (0 Bft) O 95 0 min 0,000 mm 1,0 UV-I 193 W/m 12,9 C 18,9 C 4,0 km/h (1 Bft) 0,00 %
02.09.2015 12:53 18,7 C 68 % 1015,8 hPa 0,0 l/m 0,0 km/h (0 Bft) O-NO 66 0 min 0,000 mm 1,0 UV-I 169 W/m 12,7 C 18,7 C 0,0 km/h (0 Bft) 0,00 %
02.09.2015 12:58 18,7 C 68 % 1015,8 hPa 0,0 l/m 0,0 km/h (0 Bft) O-NO 78 0 min 0,000 mm 1,0 UV-I 163 W/m 12,7 C 18,7 C 0,0 km/h (0 Bft) 0,00 %
02.09.2015 13:03 18,6 C 67 % 1015,9 hPa 0,0 l/m 4,3 km/h (1 Bft) O-SO 121 0 min 0,000 mm 1,0 UV-I 138 W/m 12,3 C 18,6 C 7,9 km/h (2 Bft) 0,00 %
02.09.2015 13:08 18,4 C 69 % 1015,8 hPa 0,0 l/m 0,0 km/h (0 Bft) O-SO 102 0 min 0,000 mm 1,0 UV-I 172 W/m 12,6 C 18,4 C 0,0 km/h (0 Bft) 0,00 %
02.09.2015 13:13 18,2 C 68 % 1015,7 hPa 0,0 l/m 0,4 km/h (0 Bft) N-NO 33 0 min 0,000 mm 1,0 UV-I 159 W/m 12,2 C 18,2 C 4,0 km/h (1 Bft) 0,00 %
02.09.2015 13:18 18,2 C 68 % 1015,6 hPa 0,0 l/m 1,8 km/h (1 Bft) O 98 0 min 0,000 mm 1,0 UV-I 149 W/m 12,2 C 18,2 C 4,0 km/h (1 Bft) 0,00 %
02.09.2015 13:23 18,2 C 66 % 1015,5 hPa 0,0 l/m 2,2 km/h (1 Bft) O 85 0 min 0,000 mm 1,0 UV-I 212 W/m 11,7 C 18,2 C 4,0 km/h (1 Bft) 0,00 %
02.09.2015 13:28 18,2 C 66 % 1015,3 hPa 0,0 l/m 3,2 km/h (1 Bft) O-SO 116 0 min 0,000 mm 1,0 UV-I 248 W/m 11,7 C 18,2 C 7,9 km/h (2 Bft) 0,00 %
02.09.2015 13:33 18,2 C 66 % 1015,2 hPa 0,0 l/m 5,4 km/h (1 Bft) SO 130 0 min 0,000 mm 1,0 UV-I 302 W/m 11,7 C 18,2 C 7,9 km/h (2 Bft) 0,00 %
02.09.2015 13:38 18,4 C 71 % 1015,3 hPa 0,0 l/m 0,0 km/h (0 Bft) NO 52 0 min 0,000 mm 1,0 UV-I 337 W/m 13,0 C 18,4 C 0,0 km/h (0 Bft) 0,00 %
02.09.2015 13:43 18,5 C 70 % 1015,3 hPa 0,0 l/m 0,4 km/h (0 Bft) NO 47 0 min 0,000 mm 2,0 UV-I 362 W/m 12,9 C 18,5 C 4,0 km/h (1 Bft) 0,00 %
02.09.2015 13:48 18,7 C 66 % 1015,3 hPa 0,0 l/m 0,0 km/h (0 Bft) W-SW 255 5 min 0,000 mm 2,0 UV-I 455 W/m 12,2 C 18,7 C 0,0 km/h (0 Bft) 0,00 %
02.09.2015 13:53 18,8 C 64 % 1015,3 hPa 0,0 l/m 0,0 km/h (0 Bft) O 91 0 min 0,000 mm 2,0 UV-I 343 W/m 11,8 C 18,8 C 0,0 km/h (0 Bft) 0,00 %
02.09.2015 13:58 19,0 C 63 % 1015,0 hPa 0,0 l/m 0,4 km/h (0 Bft) N-NO 25 0 min 0,000 mm 2,0 UV-I 375 W/m 11,8 C 19,0 C 4,0 km/h (1 Bft) 0,00 %
02.09.2015 14:03 19,2 C 62 % 1015,0 hPa 0,0 l/m 0,4 km/h (0 Bft) O-SO 121 0 min 0,000 mm 1,0 UV-I 316 W/m 11,7 C 19,2 C 4,0 km/h (1 Bft) 0,00 %
02.09.2015 14:08 19,3 C 62 % 1015,0 hPa 0,0 l/m 0,0 km/h (0 Bft) NO 49 0 min 0,000 mm 1,0 UV-I 258 W/m 11,8 C 19,3 C 0,0 km/h (0 Bft) 0,00 %
02.09.2015 14:13 19,3 C 61 % 1015,0 hPa 0,0 l/m 4,3 km/h (1 Bft) O-SO 109 0 min 0,000 mm 1,0 UV-I 284 W/m 11,6 C 19,3 C 7,9 km/h (2 Bft) 0,00 %
02.09.2015 14:18 19,3 C 61 % 1014,9 hPa 0,0 l/m 1,8 km/h (1 Bft) O-NO 66 0 min 0,000 mm 1,0 UV-I 298 W/m 11,6 C 19,3 C 4,0 km/h (1 Bft) 0,00 %
02.09.2015 14:23 19,3 C 61 % 1015,0 hPa 0,0 l/m 1,4 km/h (1 Bft) O-NO 72 0 min 0,000 mm 1,0 UV-I 273 W/m 11,6 C 19,3 C 4,0 km/h (1 Bft) 0,00 %
02.09.2015 14:28 19,3 C 62 % 1014,8 hPa 0,0 l/m 0,0 km/h (0 Bft) NO 44 0 min 0,000 mm 1,0 UV-I 259 W/m 11,8 C 19,3 C 0,0 km/h (0 Bft) 0,00 %
02.09.2015 14:33 19,3 C 61 % 1014,4 hPa 0,0 l/m 2,9 km/h (1 Bft) SO 124 0 min 0,000 mm 1,0 UV-I 235 W/m 11,6 C 19,3 C 4,0 km/h (1 Bft) 0,00 %
02.09.2015 14:38 19,4 C 61 % 1014,0 hPa 0,0 l/m 0,0 km/h (0 Bft) NO 49 0 min 0,000 mm 1,0 UV-I 282 W/m 11,7 C 19,4 C 0,0 km/h (0 Bft) 0,00 %
02.09.2015 14:43 19,3 C 62 % 1014,2 hPa 0,0 l/m 1,4 km/h (1 Bft) O-SO 119 0 min 0,000 mm 1,0 UV-I 234 W/m 11,8 C 19,3 C 4,0 km/h (1 Bft) 0,00 %
02.09.2015 14:48 19,2 C 62 % 1014,2 hPa 0,0 l/m 0,4 km/h (0 Bft) N 356 0 min 0,000 mm 1,0 UV-I 166 W/m 11,7 C 19,2 C 4,0 km/h (1 Bft) 0,00 %
02.09.2015 14:53 19,1 C 62 % 1014,4 hPa 0,0 l/m 4,0 km/h (1 Bft) O-SO 109 0 min 0,000 mm 1,0 UV-I 139 W/m 11,6 C 19,1 C 7,9 km/h (2 Bft) 0,00 %
02.09.2015 14:58 19,0 C 64 % 1014,4 hPa 0,0 l/m 0,0 km/h (0 Bft) NO 47 0 min 0,000 mm 1,0 UV-I 114 W/m 12,0 C 19,0 C 0,0 km/h (0 Bft) 0,00 %
02.09.2015 15:03 18,8 C 65 % 1014,0 hPa 0,0 l/m 4,0 km/h (1 Bft) O 85 0 min 0,000 mm 1,0 UV-I 157 W/m 12,1 C 18,8 C 7,9 km/h (2 Bft) 0,00 %
02.09.2015 15:08 18,6 C 66 % 1013,8 hPa 0,0 l/m 0,4 km/h (0 Bft) O-NO 78 0 min 0,000 mm 1,0 UV-I 175 W/m 12,1 C 18,6 C 4,0 km/h (1 Bft) 0,00 %
02.09.2015 15:13 18,6 C 66 % 1013,8 hPa 0,0 l/m 1,8 km/h (1 Bft) O-SO 107 0 min 0,000 mm 1,0 UV-I 155 W/m 12,1 C 18,6 C 4,0 km/h (1 Bft) 0,00 %
02.09.2015 15:18 18,6 C 66 % 1014,0 hPa 0,0 l/m 2,9 km/h (1 Bft) O-SO 105 0 min 0,000 mm 1,0 UV-I 148 W/m 12,1 C 18,6 C 4,0 km/h (1 Bft) 0,00 %
02.09.2015 15:23 18,6 C 66 % 1013,9 hPa 0,0 l/m 4,3 km/h (1 Bft) SO 128 0 min 0,000 mm 1,0 UV-I 162 W/m 12,1 C 18,6 C 7,9 km/h (2 Bft) 0,00 %
02.09.2015 15:28 18,5 C 68 % 1013,9 hPa 0,0 l/m 1,4 km/h (1 Bft) SO 128 0 min 0,000 mm 1,0 UV-I 157 W/m 12,5 C 18,5 C 4,0 km/h (1 Bft) 0,00 %
02.09.2015 15:33 18,5 C 68 % 1013,9 hPa 0,0 l/m 0,4 km/h (0 Bft) O-NO 77 0 min 0,000 mm 1,0 UV-I 152 W/m 12,5 C 18,5 C 4,0 km/h (1 Bft) 0,00 %
02.09.2015 15:38 18,5 C 68 % 1013,8 hPa 0,0 l/m 5,4 km/h (1 Bft) SO 132 0 min 0,000 mm 1,0 UV-I 143 W/m 12,5 C 18,5 C 7,9 km/h (2 Bft) 0,00 %
02.09.2015 15:43 18,5 C 68 % 1013,9 hPa 0,0 l/m 2,9 km/h (1 Bft) O 98 0 min 0,000 mm 1,0 UV-I 118 W/m 12,5 C 18,5 C 4,0 km/h (1 Bft) 0,00 %
02.09.2015 15:48 18,4 C 69 % 1013,6 hPa 0,0 l/m 1,8 km/h (1 Bft) SO 135 0 min 0,000 mm 1,0 UV-I 110 W/m 12,6 C 18,4 C 4,0 km/h (1 Bft) 0,00 %
02.09.2015 15:53 18,3 C 69 % 1013,8 hPa 0,0 l/m 0,0 km/h (0 Bft) O-NO 64 0 min 0,000 mm 1,0 UV-I 122 W/m 12,5 C 18,3 C 0,0 km/h (0 Bft) 0,00 %
02.09.2015 15:58 18,2 C 70 % 1013,9 hPa 0,0 l/m 0,4 km/h (0 Bft) O-SO 105 0 min 0,000 mm 1,0 UV-I 132 W/m 12,6 C 18,2 C 4,0 km/h (1 Bft) 0,00 %
02.09.2015 16:03 18,1 C 70 % 1013,9 hPa 0,0 l/m 2,2 km/h (1 Bft) O 85 0 min 0,000 mm 1,0 UV-I 133 W/m 12,5 C 18,1 C 4,0 km/h (1 Bft) 0,00 %
02.09.2015 16:08 18,1 C 70 % 1014,1 hPa 0,0 l/m 0,7 km/h (0 Bft) O-SO 111 0 min 0,000 mm 1,0 UV-I 137 W/m 12,5 C 18,1 C 4,0 km/h (1 Bft) 0,00 %
02.09.2015 16:13 18,0 C 71 % 1013,9 hPa 0,0 l/m 0,0 km/h (0 Bft) O 80 0 min 0,000 mm 1,0 UV-I 123 W/m 12,7 C 18,0 C 0,0 km/h (0 Bft) 0,00 %
02.09.2015 16:18 18,1 C 71 % 1014,1 hPa 0,0 l/m 0,0 km/h (0 Bft) NO 54 0 min 0,000 mm 1,0 UV-I 108 W/m 12,8 C 18,1 C 0,0 km/h (0 Bft) 0,00 %
02.09.2015 16:23 18,1 C 71 % 1014,0 hPa 0,0 l/m 0,0 km/h (0 Bft) O-NO 66 0 min 0,000 mm 1,0 UV-I 111 W/m 12,8 C 18,1 C 0,0 km/h (0 Bft) 0,00 %
02.09.2015 16:28 18,2 C 71 % 1014,1 hPa 0,0 l/m 0,0 km/h (0 Bft) O-NO 77 0 min 0,000 mm 1,0 UV-I 99 W/m 12,9 C 18,2 C 0,0 km/h (0 Bft) 0,00 %
02.09.2015 16:33 18,2 C 71 % 1014,3 hPa 0,0 l/m 1,4 km/h (1 Bft) SO 132 0 min 0,000 mm 0,0 UV-I 80 W/m 12,9 C 18,2 C 4,0 km/h (1 Bft) 0,00 %
02.09.2015 16:38 18,0 C 73 % 1014,3 hPa 0,0 l/m 0,4 km/h (0 Bft) SO 141 0 min 0,000 mm 0,0 UV-I 63 W/m 13,1 C 18,0 C 4,0 km/h (1 Bft) 0,00 %
02.09.2015 16:44 17,9 C 74 % 1014,2 hPa 0,0 l/m 0,0 km/h (0 Bft) O-SO 105 0 min 0,000 mm 0,0 UV-I 52 W/m 13,2 C 17,9 C 0,0 km/h (0 Bft) 0,00 %
02.09.2015 16:49 17,7 C 75 % 1014,3 hPa 0,0 l/m 0,0 km/h (0 Bft) NO 56 0 min 0,000 mm 0,0 UV-I 50 W/m 13,2 C 17,7 C 0,0 km/h (0 Bft) 0,00 %
02.09.2015 16:54 17,6 C 76 % 1014,2 hPa 0,0 l/m 0,0 km/h (0 Bft) NO 53 0 min 0,000 mm 0,0 UV-I 47 W/m 13,3 C 17,6 C 0,0 km/h (0 Bft) 0,00 %
02.09.2015 16:59 17,5 C 76 % 1014,2 hPa 0,0 l/m 0,0 km/h (0 Bft) O 85 0 min 0,000 mm 0,0 UV-I 43 W/m 13,2 C 17,5 C 0,0 km/h (0 Bft) 0,00 %
02.09.2015 17:04 17,4 C 76 % 1014,4 hPa 0,0 l/m 0,0 km/h (0 Bft) O-NO 59 0 min 0,000 mm 0,0 UV-I 38 W/m 13,1 C 17,4 C 0,0 km/h (0 Bft) 0,00 %
02.09.2015 17:09 17,3 C 76 % 1014,3 hPa 0,0 l/m 0,0 km/h (0 Bft) NO 41 0 min 0,000 mm 0,0 UV-I 46 W/m 13,0 C 17,3 C 0,0 km/h (0 Bft) 0,00 %
02.09.2015 17:14 17,2 C 79 % 1014,2 hPa 0,0 l/m 0,0 km/h (0 Bft) NO 42 0 min 0,000 mm 0,0 UV-I 50 W/m 13,5 C 17,2 C 0,0 km/h (0 Bft) 0,00 %
02.09.2015 17:19 17,1 C 81 % 1014,5 hPa 0,0 l/m 0,0 km/h (0 Bft) N-NW 327 0 min 0,000 mm 0,0 UV-I 40 W/m 13,8 C 17,1 C 0,0 km/h (0 Bft) 0,00 %
02.09.2015 17:24 17,0 C 82 % 1014,5 hPa 0,0 l/m 0,0 km/h (0 Bft) NO 44 0 min 0,000 mm 0,0 UV-I 26 W/m 13,9 C 17,0 C 0,0 km/h (0 Bft) 0,00 %
02.09.2015 17:29 16,9 C 82 % 1014,6 hPa 0,0 l/m 0,0 km/h (0 Bft) NO 44 0 min 0,000 mm 0,0 UV-I 19 W/m 13,8 C 16,9 C 0,0 km/h (0 Bft) 0,00 %
02.09.2015 17:34 16,9 C 84 % 1014,9 hPa 0,3 l/m 0,0 km/h (0 Bft) NO 37 0 min 0,000 mm 0,0 UV-I 11 W/m 14,2 C 16,9 C 0,0 km/h (0 Bft) 0,00 %
02.09.2015 17:39 16,8 C 87 % 1015,0 hPa 0,3 l/m 0,0 km/h (0 Bft) N 355 0 min 0,000 mm 0,0 UV-I 11 W/m 14,6 C 16,8 C 0,0 km/h (0 Bft) 0,00 %
02.09.2015 17:44 16,7 C 88 % 1015,1 hPa 0,3 l/m 0,0 km/h (0 Bft) NO 36 0 min 0,000 mm 0,0 UV-I 7 W/m 14,7 C 16,7 C 0,0 km/h (0 Bft) 0,00 %
02.09.2015 17:49 16,4 C 89 % 1015,2 hPa 0,3 l/m 0,0 km/h (0 Bft) O-NO 76 0 min 0,000 mm 0,0 UV-I 4 W/m 14,6 C 16,4 C 0,0 km/h (0 Bft) 0,00 %
02.09.2015 17:54 16,1 C 91 % 1015,0 hPa 0,6 l/m 0,0 km/h (0 Bft) NO 42 0 min 0,000 mm 0,0 UV-I 2 W/m 14,6 C 16,1 C 0,0 km/h (0 Bft) 0,00 %
02.09.2015 17:59 15,8 C 91 % 1015,1 hPa 0,6 l/m 0,0 km/h (0 Bft) NO 52 0 min 0,000 mm 0,0 UV-I 0 W/m 14,3 C 15,8 C 0,0 km/h (0 Bft) 0,00 %
02.09.2015 18:04 15,6 C 91 % 1015,0 hPa 1,5 l/m 0,0 km/h (0 Bft) N 352 0 min 0,000 mm 0,0 UV-I 0 W/m 14,1 C 15,6 C 0,0 km/h (0 Bft) 0,00 %
02.09.2015 18:09 15,4 C 92 % 1015,0 hPa 1,8 l/m 0,0 km/h (0 Bft) NO 40 0 min 0,000 mm 0,0 UV-I 0 W/m 14,1 C 15,4 C 0,0 km/h (0 Bft) 0,00 %
02.09.2015 18:14 15,3 C 93 % 1014,7 hPa 0,9 l/m 0,0 km/h (0 Bft) O-NO 66 0 min 0,000 mm 0,0 UV-I 1 W/m 14,2 C 15,3 C 0,0 km/h (0 Bft) 0,00 %
02.09.2015 18:19 15,2 C 94 % 1014,5 hPa 0,6 l/m 4,7 km/h (1 Bft) O-NO 77 0 min 0,000 mm 0,0 UV-I 3 W/m 14,2 C 15,2 C 7,9 km/h (2 Bft) 0,00 %
02.09.2015 18:24 15,1 C 95 % 1014,7 hPa 0,6 l/m 0,0 km/h (0 Bft) NO 47 0 min 0,000 mm 0,0 UV-I 6 W/m 14,3 C 15,1 C 0,0 km/h (0 Bft) 0,00 %
02.09.2015 18:29 15,0 C 95 % 1015,0 hPa 0,6 l/m 0,0 km/h (0 Bft) N-NW 335 0 min 0,000 mm 0,0 UV-I 11 W/m 14,2 C 15,0 C 0,0 km/h (0 Bft) 0,00 %
02.09.2015 18:34 15,0 C 96 % 1014,9 hPa 0,3 l/m 0,0 km/h (0 Bft) O-NO 70 0 min 0,000 mm 0,0 UV-I 9 W/m 14,4 C 15,0 C 0,0 km/h (0 Bft) 0,00 %
02.09.2015 18:39 15,1 C 96 % 1015,0 hPa 0,6 l/m 0,0 km/h (0 Bft) NO 51 0 min 0,000 mm 0,0 UV-I 8 W/m 14,5 C 15,1 C 0,0 km/h (0 Bft) 0,00 %
02.09.2015 18:44 15,1 C 97 % 1015,0 hPa 0,0 l/m 0,0 km/h (0 Bft) W 274 0 min 0,000 mm 0,0 UV-I 1 W/m 14,6 C 15,1 C 0,0 km/h (0 Bft) 0,00 %
02.09.2015 18:49 15,1 C 97 % 1014,9 hPa 0,3 l/m 0,0 km/h (0 Bft) N-NO 22 0 min 0,000 mm 0,0 UV-I 6 W/m 14,6 C 15,1 C 0,0 km/h (0 Bft) 0,00 %
02.09.2015 18:54 15,0 C 98 % 1014,8 hPa 0,3 l/m 0,0 km/h (0 Bft) O 84 0 min 0,000 mm 0,0 UV-I 12 W/m 14,7 C 15,0 C 0,0 km/h (0 Bft) 0,00 %
02.09.2015 18:59 14,8 C 98 % 1014,9 hPa 0,0 l/m 0,0 km/h (0 Bft) N-NO 20 0 min 0,000 mm 0,0 UV-I 6 W/m 14,5 C 14,8 C 0,0 km/h (0 Bft) 0,00 %
02.09.2015 19:04 14,7 C 98 % 1015,1 hPa 0,0 l/m 0,4 km/h (0 Bft) NO 53 0 min 0,000 mm 0,0 UV-I 0 W/m 14,4 C 14,7 C 4,0 km/h (1 Bft) 0,00 %
02.09.2015 19:09 14,6 C 98 % 1015,1 hPa 0,0 l/m 0,0 km/h (0 Bft) O 82 0 min 0,000 mm 0,0 UV-I 0 W/m 14,3 C 14,6 C 0,0 km/h (0 Bft) 0,00 %
02.09.2015 19:14 14,5 C 98 % 1015,1 hPa 0,0 l/m 0,0 km/h (0 Bft) NO 47 0 min 0,000 mm 0,0 UV-I 0 W/m 14,2 C 14,5 C 0,0 km/h (0 Bft) 0,00 %
02.09.2015 19:19 14,5 C 99 % 1015,1 hPa 0,0 l/m 0,0 km/h (0 Bft) N-NO 27 0 min 0,000 mm 0,0 UV-I 0 W/m 14,3 C 14,5 C 0,0 km/h (0 Bft) 0,00 %
02.09.2015 19:24 14,4 C 99 % 1015,2 hPa 0,0 l/m 0,0 km/h (0 Bft) NO 36 0 min 0,000 mm 0,0 UV-I 0 W/m 14,2 C 14,4 C 0,0 km/h (0 Bft) 0,00 %
02.09.2015 19:29 14,3 C 99 % 1015,3 hPa 0,0 l/m 0,0 km/h (0 Bft) O-NO 66 0 min 0,000 mm 0,0 UV-I 0 W/m 14,1 C 14,3 C 0,0 km/h (0 Bft) 0,00 %
02.09.2015 19:34 14,2 C 99 % 1015,2 hPa 0,0 l/m 0,0 km/h (0 Bft) NW 326 0 min 0,000 mm 0,0 UV-I 0 W/m 14,0 C 14,2 C 0,0 km/h (0 Bft) 0,00 %
02.09.2015 19:39 14,2 C 99 % 1015,1 hPa 0,0 l/m 0,0 km/h (0 Bft) NO 55 0 min 0,000 mm 0,0 UV-I 0 W/m 14,0 C 14,2 C 0,0 km/h (0 Bft) 0,00 %
02.09.2015 19:44 14,2 C 99 % 1015,2 hPa 0,0 l/m 0,0 km/h (0 Bft) NO 34 0 min 0,000 mm 0,0 UV-I 0 W/m 14,0 C 14,2 C 0,0 km/h (0 Bft) 0,00 %
02.09.2015 19:49 14,2 C 99 % 1015,3 hPa 0,0 l/m 0,0 km/h (0 Bft) NO 46 0 min 0,000 mm 0,0 UV-I 0 W/m 14,0 C 14,2 C 0,0 km/h (0 Bft) 0,00 %
02.09.2015 19:54 14,3 C 99 % 1015,4 hPa 0,0 l/m 0,7 km/h (0 Bft) N-NO 21 0 min 0,000 mm 0,0 UV-I 0 W/m 14,1 C 14,3 C 4,0 km/h (1 Bft) 0,00 %
02.09.2015 19:59 14,2 C 99 % 1015,3 hPa 0,3 l/m 0,0 km/h (0 Bft) NW 312 0 min 0,000 mm 0,0 UV-I 0 W/m 14,0 C 14,2 C 0,0 km/h (0 Bft) 0,00 %
02.09.2015 20:04 14,2 C 99 % 1015,5 hPa 0,0 l/m 0,0 km/h (0 Bft) NO 40 0 min 0,000 mm 0,0 UV-I 0 W/m 14,0 C 14,2 C 0,0 km/h (0 Bft) 0,00 %
02.09.2015 20:09 14,2 C 99 % 1015,5 hPa 0,0 l/m 0,0 km/h (0 Bft) NO 37 0 min 0,000 mm 0,0 UV-I 0 W/m 14,0 C 14,2 C 0,0 km/h (0 Bft) 0,00 %
02.09.2015 20:14 14,2 C 99 % 1015,6 hPa 0,0 l/m 0,0 km/h (0 Bft) NO 36 0 min 0,000 mm 0,0 UV-I 0 W/m 14,0 C 14,2 C 0,0 km/h (0 Bft) 0,00 %
02.09.2015 20:19 14,3 C 99 % 1015,7 hPa 0,0 l/m 0,0 km/h (0 Bft) NO 34 0 min 0,000 mm 0,0 UV-I 0 W/m 14,1 C 14,3 C 0,0 km/h (0 Bft) 0,00 %
02.09.2015 20:24 14,2 C 99 % 1015,6 hPa 0,0 l/m 0,0 km/h (0 Bft) NO 49 0 min 0,000 mm 0,0 UV-I 0 W/m 14,0 C 14,2 C 0,0 km/h (0 Bft) 0,00 %
02.09.2015 20:29 14,2 C 99 % 1015,7 hPa 0,0 l/m 0,0 km/h (0 Bft) NO 47 0 min 0,000 mm 0,0 UV-I 0 W/m 14,0 C 14,2 C 0,0 km/h (0 Bft) 0,00 %
02.09.2015 20:34 14,2 C 99 % 1015,7 hPa 0,0 l/m 0,0 km/h (0 Bft) NO 46 0 min 0,000 mm 0,0 UV-I 0 W/m 14,0 C 14,2 C 0,0 km/h (0 Bft) 0,00 %
02.09.2015 20:39 14,2 C 99 % 1015,7 hPa 0,0 l/m 0,0 km/h (0 Bft) NO 34 0 min 0,000 mm 0,0 UV-I 0 W/m 14,0 C 14,2 C 0,0 km/h (0 Bft) 0,00 %
02.09.2015 20:44 14,2 C 99 % 1015,9 hPa 0,0 l/m 0,0 km/h (0 Bft) NO 36 0 min 0,000 mm 0,0 UV-I 0 W/m 14,0 C 14,2 C 0,0 km/h (0 Bft) 0,00 %
02.09.2015 20:49 14,2 C 99 % 1015,9 hPa 0,0 l/m 0,0 km/h (0 Bft) N 353 0 min 0,000 mm 0,0 UV-I 0 W/m 14,0 C 14,2 C 0,0 km/h (0 Bft) 0,00 %
02.09.2015 20:54 14,3 C 99 % 1015,9 hPa 0,0 l/m 0,0 km/h (0 Bft) NO 48 0 min 0,000 mm 0,0 UV-I 0 W/m 14,1 C 14,3 C 0,0 km/h (0 Bft) 0,00 %
02.09.2015 20:59 14,2 C 99 % 1016,0 hPa 0,0 l/m 0,0 km/h (0 Bft) NO 48 0 min 0,000 mm 0,0 UV-I 0 W/m 14,0 C 14,2 C 0,0 km/h (0 Bft) 0,00 %
02.09.2015 21:04 14,2 C 99 % 1016,1 hPa 0,0 l/m 0,0 km/h (0 Bft) NO 51 0 min 0,000 mm 0,0 UV-I 0 W/m 14,0 C 14,2 C 0,0 km/h (0 Bft) 0,00 %
02.09.2015 21:09 14,2 C 99 % 1016,3 hPa 0,0 l/m 0,0 km/h (0 Bft) NO 47 0 min 0,000 mm 0,0 UV-I 0 W/m 14,0 C 14,2 C 0,0 km/h (0 Bft) 0,00 %
02.09.2015 21:14 14,1 C 99 % 1016,1 hPa 0,3 l/m 0,0 km/h (0 Bft) N 356 0 min 0,000 mm 0,0 UV-I 0 W/m 13,9 C 14,1 C 0,0 km/h (0 Bft) 0,00 %
02.09.2015 21:19 14,0 C 99 % 1016,2 hPa 0,0 l/m 0,0 km/h (0 Bft) N-NW 342 0 min 0,000 mm 0,0 UV-I 0 W/m 13,8 C 14,0 C 0,0 km/h (0 Bft) 0,00 %
02.09.2015 21:24 14,0 C 99 % 1016,3 hPa 0,0 l/m 0,0 km/h (0 Bft) NO 34 0 min 0,000 mm 0,0 UV-I 0 W/m 13,8 C 14,0 C 0,0 km/h (0 Bft) 0,00 %
02.09.2015 21:29 14,0 C 99 % 1016,2 hPa 0,0 l/m 0,0 km/h (0 Bft) NW 319 0 min 0,000 mm 0,0 UV-I 0 W/m 13,8 C 14,0 C 0,0 km/h (0 Bft) 0,00 %
02.09.2015 21:34 14,1 C 99 % 1016,1 hPa 0,3 l/m 0,0 km/h (0 Bft) N 353 0 min 0,000 mm 0,0 UV-I 0 W/m 13,9 C 14,1 C 0,0 km/h (0 Bft) 0,00 %
02.09.2015 21:39 14,1 C 99 % 1016,3 hPa 0,0 l/m 0,0 km/h (0 Bft) NO 42 0 min 0,000 mm 0,0 UV-I 0 W/m 13,9 C 14,1 C 0,0 km/h (0 Bft) 0,00 %
02.09.2015 21:44 14,1 C 99 % 1016,2 hPa 0,0 l/m 0,4 km/h (0 Bft) NO 41 0 min 0,000 mm 0,0 UV-I 0 W/m 13,9 C 14,1 C 4,0 km/h (1 Bft) 0,00 %
02.09.2015 21:49 14,0 C 99 % 1016,1 hPa 0,0 l/m 0,0 km/h (0 Bft) N 354 0 min 0,000 mm 0,0 UV-I 0 W/m 13,8 C 14,0 C 0,0 km/h (0 Bft) 0,00 %
02.09.2015 21:54 13,8 C 99 % 1016,2 hPa 0,0 l/m 0,0 km/h (0 Bft) N-NO 24 0 min 0,000 mm 0,0 UV-I 0 W/m 13,6 C 13,8 C 0,0 km/h (0 Bft) 0,00 %
02.09.2015 21:59 13,8 C 99 % 1016,3 hPa 0,0 l/m 0,0 km/h (0 Bft) NO 40 0 min 0,000 mm 0,0 UV-I 0 W/m 13,6 C 13,8 C 0,0 km/h (0 Bft) 0,00 %
02.09.2015 22:04 13,9 C 99 % 1016,2 hPa 0,0 l/m 0,0 km/h (0 Bft) NO 38 0 min 0,000 mm 0,0 UV-I 0 W/m 13,7 C 13,9 C 0,0 km/h (0 Bft) 0,00 %
02.09.2015 22:09 13,9 C 99 % 1016,2 hPa 0,0 l/m 0,0 km/h (0 Bft) N-NO 27 0 min 0,000 mm 0,0 UV-I 0 W/m 13,7 C 13,9 C 0,0 km/h (0 Bft) 0,00 %
02.09.2015 22:14 13,9 C 99 % 1016,2 hPa 0,0 l/m 0,0 km/h (0 Bft) NO 42 0 min 0,000 mm 0,0 UV-I 0 W/m 13,7 C 13,9 C 0,0 km/h (0 Bft) 0,00 %
02.09.2015 22:19 13,9 C 99 % 1016,2 hPa 0,0 l/m 0,0 km/h (0 Bft) NO 39 0 min 0,000 mm 0,0 UV-I 0 W/m 13,7 C 13,9 C 0,0 km/h (0 Bft) 0,00 %
02.09.2015 22:24 13,8 C 99 % 1016,3 hPa 0,0 l/m 0,0 km/h (0 Bft) NO 39 0 min 0,000 mm 0,0 UV-I 0 W/m 13,6 C 13,8 C 0,0 km/h (0 Bft) 0,00 %
02.09.2015 22:29 13,8 C 99 % 1016,2 hPa 0,0 l/m 0,0 km/h (0 Bft) NO 39 0 min 0,000 mm 0,0 UV-I 0 W/m 13,6 C 13,8 C 0,0 km/h (0 Bft) 0,00 %
02.09.2015 22:34 13,8 C 99 % 1016,0 hPa 0,0 l/m 0,0 km/h (0 Bft) NO 40 0 min 0,000 mm 0,0 UV-I 0 W/m 13,6 C 13,8 C 0,0 km/h (0 Bft) 0,00 %
02.09.2015 22:39 13,8 C 99 % 1016,2 hPa 0,0 l/m 0,0 km/h (0 Bft) NO 42 0 min 0,000 mm 0,0 UV-I 0 W/m 13,6 C 13,8 C 0,0 km/h (0 Bft) 0,00 %
02.09.2015 22:44 13,8 C 99 % 1016,2 hPa 0,0 l/m 0,0 km/h (0 Bft) NO 36 0 min 0,000 mm 0,0 UV-I 0 W/m 13,6 C 13,8 C 0,0 km/h (0 Bft) 0,00 %
02.09.2015 22:49 13,9 C 99 % 1016,0 hPa 0,0 l/m 0,0 km/h (0 Bft) O-NO 57 0 min 0,000 mm 0,0 UV-I 0 W/m 13,7 C 13,9 C 0,0 km/h (0 Bft) 0,00 %
02.09.2015 22:54 13,9 C 99 % 1015,9 hPa 0,0 l/m 0,0 km/h (0 Bft) N 9 0 min 0,000 mm 0,0 UV-I 0 W/m 13,7 C 13,9 C 0,0 km/h (0 Bft) 0,00 %
02.09.2015 22:59 13,8 C 99 % 1016,0 hPa 0,0 l/m 0,0 km/h (0 Bft) N-NO 26 0 min 0,000 mm 0,0 UV-I 0 W/m 13,6 C 13,8 C 0,0 km/h (0 Bft) 0,00 %
02.09.2015 23:04 13,8 C 99 % 1016,1 hPa 0,0 l/m 0,0 km/h (0 Bft) NO 35 0 min 0,000 mm 0,0 UV-I 0 W/m 13,6 C 13,8 C 0,0 km/h (0 Bft) 0,00 %
02.09.2015 23:09 13,7 C 99 % 1016,0 hPa 0,0 l/m 0,0 km/h (0 Bft) NO 53 0 min 0,000 mm 0,0 UV-I 0 W/m 13,5 C 13,7 C 0,0 km/h (0 Bft) 0,00 %
02.09.2015 23:14 13,4 C 99 % 1016,0 hPa 0,0 l/m 0,0 km/h (0 Bft) N-NO 28 0 min 0,000 mm 0,0 UV-I 0 W/m 13,2 C 13,4 C 0,0 km/h (0 Bft) 0,00 %
02.09.2015 23:19 13,2 C 99 % 1016,1 hPa 0,0 l/m 0,0 km/h (0 Bft) NO 48 0 min 0,000 mm 0,0 UV-I 0 W/m 13,0 C 13,2 C 0,0 km/h (0 Bft) 0,00 %
02.09.2015 23:24 13,0 C 99 % 1016,0 hPa 0,0 l/m 0,0 km/h (0 Bft) NO 40 0 min 0,000 mm 0,0 UV-I 0 W/m 12,8 C 13,0 C 0,0 km/h (0 Bft) 0,00 %
02.09.2015 23:29 12,9 C 99 % 1015,9 hPa 0,0 l/m 0,0 km/h (0 Bft) N-NO 25 0 min 0,000 mm 0,0 UV-I 0 W/m 12,7 C 12,9 C 0,0 km/h (0 Bft) 0,00 %
02.09.2015 23:34 12,8 C 99 % 1015,9 hPa 0,0 l/m 0,0 km/h (0 Bft) O-NO 70 0 min 0,000 mm 0,0 UV-I 0 W/m 12,6 C 12,8 C 0,0 km/h (0 Bft) 0,00 %
02.09.2015 23:39 12,8 C 99 % 1016,0 hPa 0,0 l/m 0,0 km/h (0 Bft) O-NO 67 0 min 0,000 mm 0,0 UV-I 0 W/m 12,6 C 12,8 C 0,0 km/h (0 Bft) 0,00 %
02.09.2015 23:44 12,8 C 99 % 1016,1 hPa 0,0 l/m 1,4 km/h (1 Bft) O 93 0 min 0,000 mm 0,0 UV-I 0 W/m 12,6 C 12,8 C 4,0 km/h (1 Bft) 0,00 %
02.09.2015 23:49 12,9 C 99 % 1015,8 hPa 0,0 l/m 1,8 km/h (1 Bft) S-SO 157 0 min 0,000 mm 0,0 UV-I 0 W/m 12,7 C 12,9 C 4,0 km/h (1 Bft) 0,00 %
02.09.2015 23:54 13,0 C 99 % 1015,8 hPa 0,0 l/m 2,9 km/h (1 Bft) SO 128 0 min 0,000 mm 0,0 UV-I 0 W/m 12,8 C 13,0 C 4,0 km/h (1 Bft) 0,00 %
02.09.2015 23:59 13,1 C 99 % 1016,0 hPa 0,0 l/m 0,4 km/h (0 Bft) O 89 0 min 0,000 mm 0,0 UV-I 0 W/m 12,9 C 13,1 C 4,0 km/h (1 Bft) 0,00 %
_ Min-Zeit 23:34 14:13 15:48 - 00:43 - - - - - - 14:13 23:34 00:43 00:03
Minimum _ 12,8 C 61 % 1013,6 hPa - 0,0 km/h (0 Bft) - - - - - - 11,6 C 12,8 C 0,0 km/h (0 Bft) 0,00 %
_ Max-Zeit 12:18 19:19 09:18 18:09 00:18 - - 09:03 00:03 10:38 12:03 00:33 12:18 00:03 00:03
Maximum _ 19,5 C 99 % 1016,9 hPa 1,8 l/m 13,0 km/h
W (3 Bft)
- - 5 min 0,000 mm 2,0 UV-I 470 W/m 16,0 C 19,5 C 19,8 km/h
W-SW (3 Bft)
0,00 %
Durchschnitt _ 16,2 C 86 % 1015,4 hPa #18,6 l/m 0,8 km/h (0 Bft) W-SW - #55 min. #0,000 mm 1,1 UV-I 170 W/m 13,7 C 16,2 C 2,1 km/h (1 Bft) 0,00 %